This is the latest recevied weather packets stored in our database for station/object KI5QWQ. If no packets are shown the sender has not sent any weather packets the latest 1 day(s).
| Time | Temp. | Humidity | Pressure | Rain* | Wind** | Luminosity | Snow |
|---|---|---|---|---|---|---|---|
| 1778048456 | - | - | - | 0 mm | 0.89 m/s, 184° | - | - |
| 1778048152 | - | - | - | 0 mm | 0.45 m/s, 194° | - | - |
| 1778047850 | - | - | - | 0 mm | 0 m/s | - | - |
| 1778047548 | - | - | - | 0 mm | 0.45 m/s, 204° | - | - |
| 1778047245 | - | - | - | 0 mm | 1.34 m/s, 177° | - | - |
| 1778046942 | - | - | - | 0 mm | 0.45 m/s, 211° | - | - |
| 1778046639 | - | - | - | 0 mm | 0.45 m/s, 195° | - | - |
| 1778046336 | - | - | - | 0 mm | 0 m/s | - | - |
| 1778046031 | - | - | - | 0 mm | 1.34 m/s, 153° | - | - |
| 1778045730 | - | - | - | 0 mm | 1.34 m/s, 199° | - | - |
| 1778045428 | - | - | - | 0 mm | 0.89 m/s, 204° | - | - |
| 1778045126 | - | - | - | 0 mm | 1.79 m/s, 174° | - | - |
| 1778044824 | - | - | - | 0 mm | 0.45 m/s, 150° | - | - |
| 1778044520 | - | - | - | 0 mm | 0.45 m/s, 217° | - | - |
| 1778044217 | - | - | - | 0 mm | 0.45 m/s, 223° | - | - |
| 1778043915 | - | - | - | 0 mm | 0.89 m/s, 203° | - | - |
| 1778043612 | - | - | - | 0 mm | 0.89 m/s, 136° | - | - |
| 1778043308 | - | - | - | 0 mm | 0.89 m/s, 191° | - | - |
| 1778043006 | - | - | - | 0 mm | 0.89 m/s, 123° | - | - |
| 1778042703 | - | - | - | 0 mm | 0.89 m/s, 54° | - | - |
| 1778042400 | - | - | - | 0 mm | 2.24 m/s, 147° | - | - |
| 1778042097 | - | - | - | 0 mm | 0 m/s | - | - |
| 1778041794 | - | - | - | 0 mm | 0.89 m/s, 184° | - | - |
| 1778041489 | - | - | - | 0 mm | 0.45 m/s, 186° | - | - |
| 1778041186 | - | - | - | 0 mm | 1.34 m/s, 131° | - | - |
* Rain latest hour (hover to see other rain measurements)
** Current wind speed in m/s (hover to see current wind gust speed)